Location: Amsterdam
(30.7274°N, 84.4357°W)
Time: 16:54:00
(UTC+00:00)

Injun/Solrad 3 - Pass Details

Date: 24 February 2026
Orbit: 871 x 985 km, 66.8° (Epoch: 11 March)

Event Time Altitude Azimuth Distance (km) Brightness Sun altitude
Rises 22:49:40 0° 358° (N) 3,594 10.8 8.2°
Reaches altitude 10° 22:54:50 10° 35° (NE) 2,679 9.9 7.1°
Maximum altitude 22:56:15 11° 48° (NE) 2,632 9.8 6.8°
Drops below altitude 10° 22:57:40 10° 61° (ENE) 2,693 9.7 6.5°
Sets 23:02:54 0° 98° (E) 3,661 10.4 5.4°
